GMAXS EGFF-EGBJ

Flight info

Callsign GMAXS
Flight time 1h 9m
Altitude 5000
Route CARDIFF / TAFF ELY WIND FARM / GLOUCESTERSHIRE / GLOUCESTERSHIRE / GLOUCESTERSHIRE / GLOUCESTERSHIRE / GLOUCESTERSHIRE
Aircraft P28R/L-VGDW/C

Departure

Time 2026-04-29 12:11
Airport Cardiff International Airport (EGFF)

Arrival

Time 2026-04-29 13:21
Airport Gloucestershire Airport (EGBJ)
Time Latitude Longitude Altitude Speed Heading
2026-04-29 11:43 51.39375 -3.34551 223 ft 0 kts 50°
2026-04-29 12:06 51.39387 -3.34553 223 ft 3 kts 296°
2026-04-29 12:06 51.39405 -3.34623 223 ft 6 kts 326°
2026-04-29 12:06 51.39462 -3.34656 223 ft 9 kts 340°
2026-04-29 12:06 51.39471 -3.34755 223 ft 13 kts 255°
2026-04-29 12:07 51.39450 -3.34899 223 ft 15 kts 263°
2026-04-29 12:07 51.39466 -3.35003 223 ft 10 kts
2026-04-29 12:07 51.39558 -3.34945 223 ft 19 kts 24°
2026-04-29 12:07 51.39674 -3.34859 223 ft 12 kts 21°
2026-04-29 12:08 51.39804 -3.34759 223 ft 33 kts 28°
2026-04-29 12:08 51.39959 -3.34714 223 ft 21 kts 316°
2026-04-29 12:08 51.40030 -3.34911 223 ft 24 kts 293°
2026-04-29 12:08 51.40110 -3.35162 223 ft 26 kts 291°
2026-04-29 12:09 51.40144 -3.35387 223 ft 17 kts 249°
2026-04-29 12:09 51.40134 -3.35431 222 ft 0 kts 246°
2026-04-29 12:10 51.40123 -3.35461 223 ft 14 kts 236°
2026-04-29 12:10 51.40049 -3.35523 223 ft 11 kts 155°
2026-04-29 12:10 51.39987 -3.35328 223 ft 40 kts 114°
2026-04-29 12:10 51.39780 -3.34716 223 ft 82 kts 113°
2026-04-29 12:11 51.39457 -3.33855 370 ft 93 kts 110°
2026-04-29 12:11 51.39155 -3.33010 706 ft 85 kts 109°
2026-04-29 12:11 51.38896 -3.32121 883 ft 91 kts 104°
2026-04-29 12:11 51.38949 -3.31177 1042 ft 91 kts 60°
2026-04-29 12:12 51.39524 -3.30833 1314 ft 98 kts 11°
2026-04-29 12:12 51.40248 -3.31029 1565 ft 107 kts 354°
2026-04-29 12:12 51.40908 -3.31511 1830 ft 109 kts 343°
2026-04-29 12:12 51.41603 -3.32379 1805 ft 134 kts 330°
2026-04-29 12:13 51.42167 -3.33391 2176 ft 123 kts 319°
2026-04-29 12:13 51.42691 -3.34676 2185 ft 143 kts 309°
2026-04-29 12:13 51.43119 -3.35997 2576 ft 132 kts 303°
2026-04-29 12:13 51.43554 -3.37406 2636 ft 144 kts 315°
2026-04-29 12:14 51.44167 -3.38526 2977 ft 127 kts 327°
2026-04-29 12:14 51.44767 -3.39653 3065 ft 141 kts 322°
2026-04-29 12:14 51.45409 -3.40789 3343 ft 131 kts 328°
2026-04-29 12:14 51.46052 -3.41844 3520 ft 136 kts 332°
2026-04-29 12:15 51.46781 -3.42776 3735 ft 129 kts 341°
2026-04-29 12:15 51.47517 -3.43496 3845 ft 124 kts 351°
2026-04-29 12:15 51.48328 -3.44061 3896 ft 123 kts 357°
2026-04-29 12:15 51.49107 -3.44459 4032 ft 117 kts
2026-04-29 12:16 51.49915 -3.44736 4076 ft 117 kts
2026-04-29 12:16 51.50696 -3.44907 4204 ft 111 kts 13°
2026-04-29 12:16 51.51482 -3.45006 4216 ft 114 kts 16°
2026-04-29 12:16 51.52250 -3.45006 4314 ft 109 kts 20°
2026-04-29 12:17 51.53023 -3.45000 4358 ft 111 kts 18°
2026-04-29 12:17 51.53812 -3.45062 4391 ft 116 kts 12°
2026-04-29 12:17 51.54617 -3.45250 4448 ft 116 kts 10°
2026-04-29 12:17 51.55429 -3.45531 4479 ft 124 kts 359°
2026-04-29 12:18 51.56247 -3.46079 4518 ft 130 kts 350°
2026-04-29 12:18 51.57051 -3.46754 4563 ft 131 kts 346°
2026-04-29 12:18 51.57843 -3.47525 4602 ft 134 kts 341°
2026-04-29 12:18 51.58617 -3.48387 4636 ft 136 kts 336°
2026-04-29 12:19 51.59369 -3.49339 4673 ft 138 kts 332°
2026-04-29 12:19 51.60111 -3.50323 4712 ft 135 kts 338°
2026-04-29 12:19 51.60910 -3.51130 4768 ft 135 kts 342°
2026-04-29 12:19 51.61710 -3.51893 4840 ft 134 kts 344°
2026-04-29 12:20 51.62525 -3.52624 4878 ft 133 kts 347°
2026-04-29 12:20 51.63360 -3.53194 4932 ft 128 kts 354°
2026-04-29 12:20 51.64196 -3.53679 4959 ft 127 kts 357°
2026-04-29 12:20 51.65035 -3.54120 4944 ft 127 kts 359°
2026-04-29 12:21 51.65879 -3.54487 4939 ft 124 kts
2026-04-29 12:21 51.66714 -3.54795 4914 ft 123 kts
2026-04-29 12:21 51.67549 -3.54993 4869 ft 118 kts 15°
2026-04-29 12:21 51.68342 -3.54939 4861 ft 111 kts 25°
2026-04-29 12:22 51.69090 -3.54748 4838 ft 108 kts 28°
2026-04-29 12:22 51.69838 -3.54537 4879 ft 112 kts 27°
2026-04-29 12:22 51.70594 -3.54340 5082 ft 108 kts 27°
2026-04-29 12:22 51.71354 -3.54155 5193 ft 113 kts 26°
2026-04-29 12:23 51.72126 -3.53977 5332 ft 111 kts 26°
2026-04-29 12:23 51.72873 -3.53742 5288 ft 107 kts 36°
2026-04-29 12:23 51.73513 -3.53228 5141 ft 98 kts 53°
2026-04-29 12:23 51.73943 -3.52483 5073 ft 86 kts 70°
2026-04-29 12:24 51.74191 -3.51621 4956 ft 84 kts 77°
2026-04-29 12:24 51.74408 -3.50750 4955 ft 85 kts 77°
2026-04-29 12:24 51.74634 -3.49890 5078 ft 82 kts 76°
2026-04-29 12:24 51.74870 -3.49022 5129 ft 85 kts 77°
2026-04-29 12:25 51.75100 -3.48151 5234 ft 83 kts 77°
2026-04-29 12:25 51.75342 -3.47302 5257 ft 84 kts 76°
2026-04-29 12:25 51.75823 -3.45569 5206 ft 83 kts 77°
2026-04-29 12:26 51.76058 -3.44708 5167 ft 85 kts 76°
2026-04-29 12:26 51.76300 -3.43848 5146 ft 83 kts 76°
2026-04-29 12:26 51.76530 -3.42988 5065 ft 84 kts 78°
2026-04-29 12:26 51.76712 -3.42105 5026 ft 81 kts 82°
2026-04-29 12:27 51.76857 -3.41227 4969 ft 81 kts 84°
2026-04-29 12:27 51.76959 -3.40330 4927 ft 81 kts 87°
2026-04-29 12:27 51.77011 -3.39442 4918 ft 79 kts 90°
2026-04-29 12:27 51.77022 -3.38550 4878 ft 80 kts 93°
2026-04-29 12:28 51.76996 -3.37662 4871 ft 78 kts 94°
2026-04-29 12:28 51.76995 -3.36772 4876 ft 81 kts 89°
2026-04-29 12:28 51.77088 -3.35883 4941 ft 80 kts 84°
2026-04-29 12:28 51.77222 -3.35004 4971 ft 82 kts 81°
2026-04-29 12:29 51.77397 -3.34127 5016 ft 82 kts 79°
2026-04-29 12:29 51.77600 -3.33257 5073 ft 84 kts 78°
2026-04-29 12:29 51.77829 -3.32394 5178 ft 83 kts 75°
2026-04-29 12:29 51.78095 -3.31546 5248 ft 86 kts 73°
2026-04-29 12:30 51.78379 -3.30699 5333 ft 86 kts 73°
2026-04-29 12:30 51.78672 -3.29873 5342 ft 83 kts 72°
2026-04-29 12:30 51.78968 -3.29040 5166 ft 88 kts 74°
2026-04-29 12:30 51.79206 -3.28166 5112 ft 80 kts 80°
2026-04-29 12:31 51.79347 -3.27298 4957 ft 82 kts 86°
2026-04-29 12:31 51.79400 -3.26390 4856 ft 79 kts 89°
2026-04-29 12:31 51.79450 -3.25515 4758 ft 79 kts 88°
2026-04-29 12:31 51.79516 -3.24612 4652 ft 79 kts 86°
2026-04-29 12:32 51.79611 -3.23754 4570 ft 79 kts 83°
2026-04-29 12:32 51.79791 -3.22868 4523 ft 84 kts 76°
2026-04-29 12:32 51.80003 -3.22027 4645 ft 79 kts 76°
2026-04-29 12:32 51.80241 -3.21192 4651 ft 84 kts 75°
2026-04-29 12:33 51.80489 -3.20355 4738 ft 81 kts 75°
2026-04-29 12:33 51.80721 -3.19514 4774 ft 83 kts 76°
2026-04-29 12:33 51.80949 -3.18660 4859 ft 82 kts 75°
2026-04-29 12:33 51.81192 -3.17823 4917 ft 83 kts 74°
2026-04-29 12:34 51.81461 -3.16985 4982 ft 84 kts 72°
2026-04-29 12:34 51.81752 -3.16166 5035 ft 85 kts 70°
2026-04-29 12:34 51.82071 -3.15350 5090 ft 86 kts 70°
2026-04-29 12:34 51.82363 -3.14522 5148 ft 84 kts 73°
2026-04-29 12:35 51.82607 -3.13662 5193 ft 84 kts 77°
2026-04-29 12:35 51.82740 -3.13088 5208 ft 79 kts 79°
2026-04-29 12:35 51.82963 -3.11924 4982 ft 84 kts 83°
2026-04-29 12:35 51.83068 -3.11033 4901 ft 78 kts 88°
2026-04-29 12:36 51.83096 -3.10151 4757 ft 80 kts 91°
2026-04-29 12:36 51.83119 -3.09557 4688 ft 79 kts 86°
2026-04-29 12:36 51.83285 -3.08706 4570 ft 84 kts 69°
2026-04-29 12:36 51.83670 -3.07951 4459 ft 87 kts 60°
2026-04-29 12:37 51.84088 -3.07262 4369 ft 87 kts 58°
2026-04-29 12:37 51.84539 -3.06589 4264 ft 89 kts 57°
2026-04-29 12:37 51.84976 -3.05915 4246 ft 85 kts 58°
2026-04-29 12:37 51.85397 -3.05231 4184 ft 87 kts 57°
2026-04-29 12:38 51.85875 -3.04587 4152 ft 89 kts 52°
2026-04-29 12:38 51.86386 -3.04017 4101 ft 89 kts 49°
2026-04-29 12:38 51.86914 -3.03470 3998 ft 91 kts 47°
2026-04-29 12:38 51.87447 -3.02930 3915 ft 90 kts 48°
2026-04-29 12:39 51.87975 -3.02393 3833 ft 90 kts 48°
2026-04-29 12:39 51.88499 -3.01852 3798 ft 88 kts 48°
2026-04-29 12:39 51.89009 -3.01307 3688 ft 89 kts 51°
2026-04-29 12:39 51.89486 -3.00702 3617 ft 85 kts 54°
2026-04-29 12:40 51.89924 -3.00080 3534 ft 84 kts 56°
2026-04-29 12:40 51.90342 -2.99422 3450 ft 83 kts 58°
2026-04-29 12:40 51.90722 -2.98744 3379 ft 81 kts 61°
2026-04-29 12:40 51.91084 -2.98045 3302 ft 80 kts 61°
2026-04-29 12:41 51.91439 -2.97351 3234 ft 80 kts 61°
2026-04-29 12:41 51.91793 -2.96651 3164 ft 80 kts 61°
2026-04-29 12:41 51.92149 -2.95961 3116 ft 80 kts 61°
2026-04-29 12:41 51.92496 -2.95262 3064 ft 80 kts 60°
2026-04-29 12:42 51.92850 -2.94576 3018 ft 80 kts 60°
2026-04-29 12:42 51.93226 -2.93907 2983 ft 82 kts 57°
2026-04-29 12:42 51.93644 -2.93282 3014 ft 82 kts 52°
2026-04-29 12:42 51.94115 -2.92733 3009 ft 85 kts 47°
2026-04-29 12:43 51.94625 -2.92231 3025 ft 86 kts 45°
2026-04-29 12:43 51.95144 -2.91751 3033 ft 87 kts 45°
2026-04-29 12:43 51.95671 -2.91277 3045 ft 87 kts 43°
2026-04-29 12:43 51.96215 -2.90834 3047 ft 87 kts 44°
2026-04-29 12:44 51.96727 -2.90332 3057 ft 85 kts 49°
2026-04-29 12:44 51.97192 -2.89771 3057 ft 82 kts 53°
2026-04-29 12:44 51.97608 -2.89145 3015 ft 81 kts 58°
2026-04-29 12:44 51.97946 -2.88427 2986 ft 78 kts 66°
2026-04-29 12:45 51.98196 -2.87657 2954 ft 77 kts 70°
2026-04-29 12:45 51.98417 -2.86876 2923 ft 76 kts 72°
2026-04-29 12:45 51.98619 -2.86082 2885 ft 77 kts 74°
2026-04-29 12:45 51.98795 -2.85260 2853 ft 77 kts 76°
2026-04-29 12:46 51.98942 -2.84438 2837 ft 76 kts 77°
2026-04-29 12:46 51.99064 -2.83601 2807 ft 77 kts 81°
2026-04-29 12:46 51.99147 -2.82755 2825 ft 75 kts 81°
2026-04-29 12:46 51.99268 -2.81924 2815 ft 76 kts 74°
2026-04-29 12:47 51.99533 -2.81158 2806 ft 80 kts 60°
2026-04-29 12:47 51.99945 -2.80525 2824 ft 82 kts 53°
2026-04-29 12:47 52.00374 -2.79897 2810 ft 85 kts 54°
2026-04-29 12:47 52.00779 -2.79206 2829 ft 82 kts 59°
2026-04-29 12:48 52.01128 -2.78484 2853 ft 82 kts 63°
2026-04-29 12:48 52.01417 -2.77696 2854 ft 80 kts 69°
2026-04-29 12:48 52.01645 -2.76879 2837 ft 80 kts 70°
2026-04-29 12:48 52.01902 -2.76075 2815 ft 80 kts 66°
2026-04-29 12:49 52.02199 -2.75302 2799 ft 81 kts 64°
2026-04-29 12:49 52.02543 -2.74561 2821 ft 85 kts 59°
2026-04-29 12:49 52.02927 -2.73855 2987 ft 81 kts 56°
2026-04-29 12:49 52.03306 -2.73181 3106 ft 81 kts 64°
2026-04-29 12:50 52.03531 -2.72344 3173 ft 81 kts 81°
2026-04-29 12:50 52.03506 -2.71465 3256 ft 77 kts 98°
2026-04-29 12:50 52.03345 -2.70604 3137 ft 82 kts 101°
2026-04-29 12:50 52.03166 -2.69737 3105 ft 79 kts 102°
2026-04-29 12:51 52.02964 -2.68895 3027 ft 82 kts 103°
2026-04-29 12:51 52.02773 -2.68024 3021 ft 83 kts 100°
2026-04-29 12:51 52.02627 -2.67153 3187 ft 77 kts 97°
2026-04-29 12:51 52.02518 -2.66283 3275 ft 80 kts 95°
2026-04-29 12:52 52.02439 -2.65395 3406 ft 78 kts 94°
2026-04-29 12:52 52.02382 -2.64526 3451 ft 77 kts 92°
2026-04-29 12:52 52.02341 -2.63632 3353 ft 81 kts 92°
2026-04-29 12:52 52.02298 -2.62749 3333 ft 76 kts 91°
2026-04-29 12:53 52.02234 -2.61877 3185 ft 80 kts 93°
2026-04-29 12:53 52.02161 -2.60988 3091 ft 78 kts 94°
2026-04-29 12:53 52.02065 -2.60121 2985 ft 79 kts 96°
2026-04-29 12:53 52.01914 -2.59249 2873 ft 80 kts 99°
2026-04-29 12:54 52.01758 -2.58376 2766 ft 81 kts 99°
2026-04-29 12:54 52.01598 -2.57501 2680 ft 81 kts 99°
2026-04-29 12:54 52.01441 -2.56630 2631 ft 80 kts 99°
2026-04-29 12:54 52.01285 -2.55761 2563 ft 80 kts 99°
2026-04-29 12:55 52.01140 -2.54884 2497 ft 82 kts 98°
2026-04-29 12:55 52.01004 -2.53968 2501 ft 80 kts 97°
2026-04-29 12:55 52.00881 -2.53102 2474 ft 80 kts 97°
2026-04-29 12:55 52.00759 -2.52195 2418 ft 82 kts 97°
2026-04-29 12:56 52.00626 -2.51318 2408 ft 80 kts 98°
2026-04-29 12:56 52.00395 -2.50471 2362 ft 88 kts 115°
2026-04-29 12:56 51.99903 -2.49781 2365 ft 93 kts 130°
2026-04-29 12:56 51.99381 -2.49220 2410 ft 89 kts 133°
2026-04-29 12:57 51.98830 -2.48721 2120 ft 96 kts 137°
2026-04-29 12:57 51.98431 -2.47995 1889 ft 79 kts 98°
2026-04-29 12:57 51.98523 -2.47132 1612 ft 84 kts 73°
2026-04-29 12:57 51.99026 -2.46534 1298 ft 97 kts 18°
2026-04-29 12:58 51.99624 -2.46635 1202 ft 82 kts 357°
2026-04-29 12:58 52.00204 -2.46957 1120 ft 92 kts 349°
2026-04-29 12:58 52.00691 -2.47318 1317 ft 77 kts 342°
2026-04-29 12:58 52.01178 -2.47789 1356 ft 81 kts 341°
2026-04-29 12:59 52.01629 -2.48378 1399 ft 95 kts 313°
2026-04-29 12:59 52.01586 -2.49493 1406 ft 91 kts 245°
2026-04-29 12:59 52.01327 -2.50411 1273 ft 92 kts 233°
2026-04-29 12:59 52.00994 -2.51301 1173 ft 95 kts 227°
2026-04-29 13:00 52.00507 -2.51894 1060 ft 82 kts 180°
2026-04-29 13:00 51.99994 -2.51868 1037 ft 69 kts 150°
2026-04-29 13:00 51.99599 -2.51487 999 ft 63 kts 120°
2026-04-29 13:00 51.99437 -2.50890 885 ft 56 kts 94°
2026-04-29 13:01 51.99507 -2.50281 703 ft 54 kts 74°
2026-04-29 13:01 51.99616 -2.49713 566 ft 51 kts 73°
2026-04-29 13:01 51.99724 -2.49170 446 ft 51 kts 71°
2026-04-29 13:01 51.99864 -2.48644 317 ft 51 kts 67°
2026-04-29 13:02 51.99998 -2.48161 232 ft 44 kts 69°
2026-04-29 13:02 52.00120 -2.47689 146 ft 43 kts 67°
2026-04-29 13:02 52.00217 -2.47321 141 ft 46 kts 65°
2026-04-29 13:02 52.00404 -2.46706 331 ft 62 kts 68°
2026-04-29 13:03 52.00600 -2.46060 608 ft 66 kts 72°
2026-04-29 13:03 52.00686 -2.45333 908 ft 67 kts 88°
2026-04-29 13:03 52.00182 -2.44829 873 ft 116 kts 162°
2026-04-29 13:03 51.99583 -2.44341 1379 ft 63 kts 116°
2026-04-29 13:04 51.99458 -2.43708 1469 ft 88 kts 95°
2026-04-29 13:04 51.99292 -2.42821 1965 ft 64 kts 112°
2026-04-29 13:04 51.98955 -2.42328 2159 ft 75 kts 125°
2026-04-29 13:04 51.98511 -2.41801 2360 ft 77 kts 134°
2026-04-29 13:05 51.98034 -2.41422 2558 ft 78 kts 131°
2026-04-29 13:05 51.97613 -2.40918 2762 ft 68 kts 121°
2026-04-29 13:05 51.97285 -2.40364 2858 ft 71 kts 114°
2026-04-29 13:05 51.97024 -2.39737 3050 ft 62 kts 107°
2026-04-29 13:06 51.96840 -2.39083 3141 ft 66 kts 101°
2026-04-29 13:06 51.96719 -2.38407 3312 ft 60 kts 99°
2026-04-29 13:06 51.96465 -2.37781 3319 ft 76 kts 119°
2026-04-29 13:06 51.96127 -2.37223 3440 ft 65 kts 115°
2026-04-29 13:07 51.95850 -2.36602 3424 ft 69 kts 111°
2026-04-29 13:07 51.95601 -2.35975 3547 ft 65 kts 109°
2026-04-29 13:07 51.95386 -2.35331 3637 ft 64 kts 107°
2026-04-29 13:07 51.95177 -2.34678 3680 ft 66 kts 108°
2026-04-29 13:08 51.94931 -2.34048 3742 ft 68 kts 116°
2026-04-29 13:08 51.94577 -2.33502 3751 ft 73 kts 124°
2026-04-29 13:08 51.94198 -2.32978 3721 ft 70 kts 120°
2026-04-29 13:08 51.93887 -2.32395 3706 ft 67 kts 114°
2026-04-29 13:09 51.93622 -2.31777 3682 ft 66 kts 111°
2026-04-29 13:09 51.93375 -2.31147 3678 ft 66 kts 110°
2026-04-29 13:09 51.93139 -2.30510 3682 ft 66 kts 111°
2026-04-29 13:09 51.92849 -2.29907 3684 ft 69 kts 119°
2026-04-29 13:10 51.92603 -2.29544 3684 ft 71 kts 121°
2026-04-29 13:10 51.92309 -2.28955 3670 ft 64 kts 108°
2026-04-29 13:10 51.92146 -2.28292 3552 ft 65 kts 99°
2026-04-29 13:10 51.92026 -2.27610 3490 ft 61 kts 97°
2026-04-29 13:11 51.91931 -2.26918 3384 ft 63 kts 95°
2026-04-29 13:11 51.91854 -2.26236 3298 ft 62 kts 94°
2026-04-29 13:11 51.91783 -2.25543 3183 ft 62 kts 93°
2026-04-29 13:11 51.91706 -2.24851 3113 ft 62 kts 94°
2026-04-29 13:12 51.91629 -2.24165 3052 ft 62 kts 94°
2026-04-29 13:12 51.91555 -2.23470 3009 ft 63 kts 93°
2026-04-29 13:12 51.91501 -2.22783 3052 ft 60 kts 91°
2026-04-29 13:12 51.91458 -2.22093 3035 ft 63 kts 91°
2026-04-29 13:13 51.91409 -2.21404 3063 ft 61 kts 91°
2026-04-29 13:13 51.91358 -2.20716 3037 ft 61 kts 91°
2026-04-29 13:13 51.91307 -2.20034 2935 ft 63 kts 91°
2026-04-29 13:13 51.91173 -2.19393 2938 ft 62 kts 118°
2026-04-29 13:14 51.90655 -2.19164 2670 ft 105 kts 164°
2026-04-29 13:14 51.89932 -2.19380 2694 ft 100 kts 172°
2026-04-29 13:14 51.89251 -2.19587 2731 ft 100 kts 171°
2026-04-29 13:14 51.88579 -2.19780 2685 ft 99 kts 170°
2026-04-29 13:15 51.87885 -2.19956 2626 ft 98 kts 170°
2026-04-29 13:15 51.87241 -2.20028 2551 ft 85 kts 156°
2026-04-29 13:15 51.86855 -2.19594 2238 ft 70 kts 105°
2026-04-29 13:15 51.86775 -2.18832 2011 ft 63 kts 86°
2026-04-29 13:16 51.86808 -2.18135 1741 ft 68 kts 82°
2026-04-29 13:16 51.86888 -2.17317 1434 ft 81 kts 83°
2026-04-29 13:16 51.87025 -2.16478 1470 ft 70 kts 71°
2026-04-29 13:16 51.87241 -2.15841 1340 ft 67 kts 47°
2026-04-29 13:17 51.87732 -2.15714 1141 ft 80 kts
2026-04-29 13:17 51.88254 -2.15853 1153 ft 78 kts 360°
2026-04-29 13:17 51.88787 -2.16042 1193 ft 81 kts 359°
2026-04-29 13:17 51.89337 -2.16223 1394 ft 65 kts 355°
2026-04-29 13:18 51.89780 -2.16552 1359 ft 79 kts 346°
2026-04-29 13:18 51.90234 -2.16737 1366 ft 60 kts
2026-04-29 13:18 51.90716 -2.16972 1180 ft 77 kts 354°
2026-04-29 13:18 51.90928 -2.17873 927 ft 103 kts 261°
2026-04-29 13:19 51.90690 -2.18886 1046 ft 85 kts 247°
2026-04-29 13:19 51.90449 -2.19793 1092 ft 96 kts 243°
2026-04-29 13:19 51.90208 -2.20701 1196 ft 86 kts 236°
2026-04-29 13:19 51.89742 -2.21214 1077 ft 81 kts 181°
2026-04-29 13:20 51.89301 -2.21018 1026 ft 62 kts 119°
2026-04-29 13:20 51.89190 -2.20390 886 ft 55 kts 85°
2026-04-29 13:20 51.89218 -2.19795 627 ft 51 kts 84°
2026-04-29 13:20 51.89254 -2.19184 491 ft 52 kts 81°
2026-04-29 13:21 51.89284 -2.18639 285 ft 51 kts 83°
2026-04-29 13:21 51.89320 -2.18101 178 ft 48 kts 82°
2026-04-29 13:21 51.89356 -2.17497 145 ft 48 kts 81°
2026-04-29 13:21 51.89395 -2.17037 104 ft 37 kts 83°
2026-04-29 13:22 51.89426 -2.16530 104 ft 49 kts 85°
2026-04-29 13:22 51.89440 -2.16117 104 ft 29 kts 89°
2026-04-29 13:22 51.89394 -2.15927 104 ft 14 kts 143°
2026-04-29 13:22 51.89301 -2.15846 104 ft 15 kts 155°
2026-04-29 13:23 51.89217 -2.15815 104 ft 12 kts 171°
2026-04-29 13:23 51.89168 -2.15841 104 ft 5 kts 238°
2026-04-29 13:23 51.89165 -2.15857 104 ft 0 kts 265°
2026-04-29 13:26 51.89165 -2.15858 104 ft 0 kts 265°
2026-04-29 13:30 51.89165 -2.15859 104 ft 0 kts 265°